| time (UTC) | temp C | wind direction | speed KPH | gust KPH | rain 1hr cm | rain 24hr cm | rain mn cm | humidity % | barometer mb |
| 20260509181051 | 17 | 172 | 0.0 | 9.7 | 0.00 | 0.00 | 0.00 | 42 | 1010.1 |
| 20260509180553 | 17 | 177 | 1.6 | 8.0 | 0.00 | 0.00 | 0.00 | 43 | 1010.0 |
| 20260509180053 | 17 | 112 | 0.0 | 8.0 | 0.00 | 0.00 | 0.00 | 43 | 1010.1 |
| 20260509175553 | 17 | 25 | 1.6 | 6.4 | 0.00 | 0.00 | 0.00 | 43 | 1010.1 |
| 20260509175052 | 17 | 344 | 0.0 | 6.4 | 0.00 | 0.00 | 0.00 | 44 | 1010.0 |
| 20260509174552 | 16 | 117 | 0.0 | 6.4 | 0.00 | 0.00 | 0.00 | 45 | 1010.1 |
| 20260509174056 | 16 | 81 | 0.0 | 6.4 | 0.00 | 0.00 | 0.00 | 45 | 1010.0 |
| 20260509173556 | 16 | 294 | 0.0 | 6.4 | 0.00 | 0.00 | 0.00 | 46 | 1010.1 |
| 20260509173056 | 16 | 344 | 0.0 | 6.4 | 0.00 | 0.00 | 0.00 | 48 | 1010.0 |
| 20260509172556 | 15 | 344 | 0.0 | 6.4 | 0.00 | 0.00 | 0.00 | 48 | 1010.0 |
| 20260509172056 | 15 | 344 | 1.6 | 6.4 | 0.00 | 0.00 | 0.00 | 50 | 1010.0 |
| 20260509171556 | 15 | 330 | 0.0 | 6.4 | 0.00 | 0.00 | 0.00 | 50 | 1010.0 |
| 20260509171055 | 15 | 329 | 0.0 | 6.4 | 0.00 | 0.00 | 0.00 | 50 | 1010.0 |
| 20260509170555 | 15 | 5 | 0.0 | 6.4 | 0.00 | 0.00 | 0.00 | 51 | 1010.0 |
| 20260509170055 | 15 | 355 | 0.0 | 6.4 | 0.00 | 0.00 | 0.00 | 53 | 1010.0 |
| 20260509165555 | 14 | 355 | 0.0 | 6.4 | 0.00 | 0.00 | 0.00 | 54 | 1010.0 |
| 20260509165056 | 14 | 357 | 3.2 | 6.4 | 0.00 | 0.00 | 0.00 | 55 | 1010.0 |
| 20260509164555 | 13 | 24 | 0.0 | 6.4 | 0.00 | 0.00 | 0.00 | 56 | 1010.0 |
| 20260509164057 | 13 | 30 | 0.0 | 6.4 | 0.00 | 0.00 | 0.00 | 57 | 1010.0 |
| 20260509163557 | 13 | 16 | 0.0 | 6.4 | 0.00 | 0.00 | 0.00 | 58 | 1010.0 |
| 20260509163057 | 13 | 344 | 1.6 | 6.4 | 0.00 | 0.00 | 0.00 | 57 | 1010.0 |
| 20260509162556 | 13 | 37 | 1.6 | 6.4 | 0.00 | 0.00 | 0.00 | 57 | 1010.1 |
| 20260509162056 | 13 | 13 | 0.0 | 4.8 | 0.00 | 0.00 | 0.00 | 58 | 1010.1 |
| 20260509161556 | 13 | 14 | 0.0 | 4.8 | 0.00 | 0.00 | 0.00 | 58 | 1010.0 |
| 20260509161056 | 13 | 9 | 0.0 | 4.8 | 0.00 | 0.00 | 0.00 | 57 | 1010.0 |
| 20260509160556 | 13 | 9 | 0.0 | 4.8 | 0.00 | 0.00 | 0.00 | 58 | 1010.0 |
| 20260509160056 | 13 | 355 | 1.6 | 4.8 | 0.00 | 0.00 | 0.00 | 58 | 1010.0 |
| 20260509155556 | 13 | 355 | 0.0 | 4.8 | 0.00 | 0.00 | 0.00 | 59 | 1009.8 |
| 20260509155056 | 13 | 355 | 0.0 | 4.8 | 0.00 | 0.00 | 0.00 | 59 | 1009.8 |
| 20260509154556 | 12 | 326 | 0.0 | 3.2 | 0.00 | 0.00 | 0.00 | 59 | 1009.8 |
| 20260509154056 | 12 | 326 | 0.0 | 3.2 | 0.00 | 0.00 | 0.00 | 61 | 1009.7 |
| 20260509153556 | 12 | 292 | 0.0 | 3.2 | 0.00 | 0.00 | 0.00 | 62 | 1009.7 |
| 20260509153056 | 12 | 292 | 0.0 | 3.2 | 0.00 | 0.00 | 0.00 | 63 | 1009.6 |
| 20260509152555 | 12 | 292 | 0.0 | 3.2 | 0.00 | 0.00 | 0.00 | 64 | 1009.6 |
| 20260509152055 | 12 | 292 | 0.0 | 3.2 | 0.00 | 0.00 | 0.00 | 65 | 1009.5 |
| 20260509151555 | 12 | 292 | 0.0 | 3.2 | 0.00 | 0.00 | 0.00 | 65 | 1009.5 |
| 20260509151055 | 11 | 292 | 0.0 | 3.2 | 0.00 | 0.00 | 0.00 | 66 | 1009.5 |
| 20260509150555 | 11 | 292 | 0.0 | 3.2 | 0.00 | 0.00 | 0.00 | 66 | 1009.5 |
| 20260509150055 | 11 | 292 | 0.0 | 3.2 | 0.00 | 0.00 | 0.00 | 66 | 1009.5 |
| 20260509145555 | 11 | 292 | 0.0 | 3.2 | 0.00 | 0.00 | 0.00 | 67 | 1009.5 |
| 20260509145055 | 11 | 292 | 0.0 | 3.2 | 0.00 | 0.00 | 0.00 | 67 | 1009.5 |
| 20260509144555 | 11 | 292 | 0.0 | 3.2 | 0.00 | 0.00 | 0.00 | 67 | 1009.5 |
| 20260509144055 | 11 | 291 | 0.0 | 3.2 | 0.00 | 0.00 | 0.00 | 67 | 1009.5 |
| 20260509143556 | 11 | 288 | 0.0 | 3.2 | 0.00 | 0.00 | 0.00 | 66 | 1009.5 |
| 20260509143056 | 11 | 288 | 0.0 | 3.2 | 0.00 | 0.00 | 0.00 | 66 | 1009.4 |
| 20260509142556 | 11 | 288 | 0.0 | 3.2 | 0.00 | 0.00 | 0.00 | 66 | 1009.3 |
| 20260509142056 | 11 | 288 | 0.0 | 3.2 | 0.00 | 0.00 | 0.00 | 67 | 1009.2 |
| 20260509141556 | 11 | 288 | 0.0 | 3.2 | 0.00 | 0.00 | 0.00 | 67 | 1009.1 |
| 20260509141056 | 11 | 288 | 0.0 | 3.2 | 0.00 | 0.00 | 0.00 | 68 | 1009.1 |
| 20260509140556 | 10 | 288 | 0.0 | 3.2 | 0.00 | 0.00 | 0.00 | 68 | 1009.0 |
| 20260509140056 | 10 | 288 | 0.0 | 3.2 | 0.00 | 0.00 | 0.00 | 68 | 1009.0 |
| 20260509135556 | 10 | 288 | 0.0 | 3.2 | 0.00 | 0.00 | 0.00 | 68 | 1009.0 |
| 20260509135056 | 10 | 288 | 0.0 | 3.2 | 0.00 | 0.00 | 0.00 | 68 | 1008.9 |
| 20260509134555 | 10 | 288 | 0.0 | 3.2 | 0.00 | 0.00 | 0.00 | 69 | 1008.9 |
| 20260509134055 | 10 | 288 | 0.0 | 3.2 | 0.00 | 0.00 | 0.00 | 69 | 1008.8 |
| 20260509133555 | 10 | 288 | 0.0 | 3.2 | 0.00 | 0.00 | 0.00 | 69 | 1008.8 |
| 20260509133055 | 10 | 288 | 0.0 | 3.2 | 0.00 | 0.00 | 0.00 | 70 | 1008.8 |
| 20260509132555 | 10 | 288 | 0.0 | 3.2 | 0.00 | 0.00 | 0.00 | 70 | 1008.7 |
| 20260509132055 | 10 | 288 | 0.0 | 3.2 | 0.00 | 0.00 | 0.00 | 70 | 1008.7 |
| 20260509131555 | 10 | 288 | 0.0 | 3.2 | 0.00 | 0.00 | 0.00 | 70 | 1008.7 |
| 20260509131055 | 9 | 288 | 0.0 | 3.2 | 0.00 | 0.00 | 0.00 | 69 | 1008.6 |
| 20260509130554 | 9 | 288 | 0.0 | 3.2 | 0.00 | 0.00 | 0.00 | 68 | 1008.5 |
| 20260509130055 | 9 | 288 | 0.0 | 3.2 | 0.00 | 0.00 | 0.00 | 66 | 1008.5 |
| 20260509125555 | 8 | 288 | 0.0 | 3.2 | 0.00 | 0.00 | 0.00 | 62 | 1008.6 |
| 20260509125056 | 8 | 288 | 0.0 | 3.2 | 0.00 | 0.00 | 0.00 | 58 | 1008.6 |
| 20260509124554 | 8 | 288 | 0.0 | 3.2 | 0.00 | 0.00 | 0.00 | 54 | 1008.5 |
| 20260509124054 | 8 | 288 | 0.0 | 3.2 | 0.00 | 0.00 | 0.00 | 52 | 1008.5 |
| 20260509123554 | 8 | 288 | 0.0 | 3.2 | 0.00 | 0.00 | 0.00 | 52 | 1008.4 |
| 20260509123055 | 8 | 288 | 0.0 | 3.2 | 0.00 | 0.00 | 0.00 | 51 | 1008.4 |
| 20260509122555 | 8 | 288 | 0.0 | 3.2 | 0.00 | 0.00 | 0.00 | 50 | 1008.4 |
| 20260509122055 | 9 | 288 | 0.0 | 3.2 | 0.00 | 0.00 | 0.00 | 50 | 1008.3 |
| 20260509121555 | 9 | 288 | 0.0 | 3.2 | 0.00 | 0.00 | 0.00 | 50 | 1008.3 |
| 20260509121056 | 9 | 288 | 0.0 | 3.2 | 0.00 | 0.00 | 0.00 | 49 | 1008.4 |
| 20260509120556 | 9 | 288 | 0.0 | 3.2 | 0.00 | 0.00 | 0.00 | 49 | 1008.2 |
| 20260509120054 | 10 | 288 | 0.0 | 3.2 | 0.00 | 0.00 | 0.00 | 49 | 1008.2 |
| 20260509115555 | 10 | 288 | 0.0 | 3.2 | 0.00 | 0.00 | 0.00 | 48 | 1008.2 |
| 20260509115055 | 10 | 288 | 0.0 | 3.2 | 0.00 | 0.00 | 0.00 | 48 | 1008.0 |
| 20260509114555 | 10 | 288 | 0.0 | 3.2 | 0.00 | 0.00 | 0.00 | 48 | 1008.0 |
| 20260509114055 | 10 | 288 | 0.0 | 3.2 | 0.00 | 0.00 | 0.00 | 47 | 1008.0 |
| 20260509113556 | 10 | 288 | 0.0 | 3.2 | 0.00 | 0.00 | 0.00 | 47 | 1007.9 |
| 20260509113056 | 10 | 288 | 0.0 | 3.2 | 0.00 | 0.00 | 0.00 | 46 | 1007.8 |
| 20260509112556 | 10 | 288 | 0.0 | 3.2 | 0.00 | 0.00 | 0.00 | 46 | 1007.8 |
| 20260509112056 | 10 | 288 | 0.0 | 3.2 | 0.00 | 0.00 | 0.00 | 45 | 1007.8 |
| 20260509111556 | 10 | 288 | 0.0 | 3.2 | 0.00 | 0.00 | 0.00 | 45 | 1007.8 |
| 20260509111056 | 10 | 288 | 0.0 | 3.2 | 0.00 | 0.00 | 0.00 | 45 | 1007.8 |
| 20260509110554 | 10 | 288 | 0.0 | 3.2 | 0.00 | 0.00 | 0.00 | 45 | 1007.8 |
| 20260509110054 | 10 | 288 | 0.0 | 3.2 | 0.00 | 0.00 | 0.00 | 45 | 1007.8 |
| 20260509105555 | 10 | 288 | 0.0 | 3.2 | 0.00 | 0.00 | 0.00 | 44 | 1007.8 |
| 20260509105055 | 10 | 288 | 0.0 | 3.2 | 0.00 | 0.00 | 0.00 | 44 | 1007.8 |
| 20260509104555 | 10 | 288 | 0.0 | 3.2 | 0.00 | 0.00 | 0.00 | 45 | 1007.8 |
| 20260509104056 | 10 | 288 | 0.0 | 3.2 | 0.00 | 0.00 | 0.00 | 44 | 1007.8 |
| 20260509103556 | 10 | 288 | 0.0 | 3.2 | 0.00 | 0.00 | 0.00 | 46 | 1007.8 |
| 20260509103054 | 10 | 288 | 0.0 | 3.2 | 0.00 | 0.00 | 0.00 | 44 | 1007.8 |
| 20260509102554 | 10 | 288 | 0.0 | 3.2 | 0.00 | 0.00 | 0.00 | 44 | 1007.7 |
| 20260509102054 | 11 | 288 | 0.0 | 3.2 | 0.00 | 0.00 | 0.00 | 45 | 1007.7 |
| 20260509101554 | 11 | 288 | 0.0 | 3.2 | 0.00 | 0.00 | 0.00 | 45 | 1007.7 |
| 20260509101054 | 11 | 288 | 0.0 | 3.2 | 0.00 | 0.00 | 0.00 | 45 | 1007.6 |
| 20260509100556 | 11 | 288 | 0.0 | 3.2 | 0.00 | 0.00 | 0.00 | 44 | 1007.6 |
| 20260509100055 | 11 | 288 | 0.0 | 3.2 | 0.00 | 0.00 | 0.00 | 44 | 1007.6 |
| 20260509095554 | 11 | 288 | 0.0 | 3.2 | 0.00 | 0.00 | 0.00 | 43 | 1007.5 |
| 20260509095054 | 11 | 288 | 0.0 | 3.2 | 0.00 | 0.00 | 0.00 | 43 | 1007.5 |
| 20260509094554 | 11 | 288 | 0.0 | 3.2 | 0.00 | 0.00 | 0.00 | 43 | 1007.4 |
| 20260509094055 | 11 | 288 | 0.0 | 3.2 | 0.00 | 0.00 | 0.00 | 42 | 1007.3 |
| 20260509093555 | 11 | 288 | 0.0 | 3.2 | 0.00 | 0.00 | 0.00 | 42 | 1007.4 |
| 20260509093055 | 11 | 288 | 0.0 | 3.2 | 0.00 | 0.00 | 0.00 | 41 | 1007.3 |
| 20260509092556 | 11 | 288 | 0.0 | 3.2 | 0.00 | 0.00 | 0.00 | 42 | 1007.3 |
| 20260509092056 | 11 | 288 | 0.0 | 3.2 | 0.00 | 0.00 | 0.00 | 41 | 1007.3 |
| 20260509091554 | 11 | 288 | 0.0 | 3.2 | 0.00 | 0.00 | 0.00 | 42 | 1007.3 |
| 20260509091054 | 11 | 288 | 0.0 | 3.2 | 0.00 | 0.00 | 0.00 | 41 | 1007.4 |
| 20260509090554 | 11 | 288 | 0.0 | 3.2 | 0.00 | 0.00 | 0.00 | 41 | 1007.4 |
| 20260509090055 | 11 | 288 | 0.0 | 3.2 | 0.00 | 0.00 | 0.00 | 41 | 1007.4 |
| 20260509085555 | 11 | 288 | 0.0 | 3.2 | 0.00 | 0.00 | 0.00 | 41 | 1007.4 |
| 20260509085055 | 11 | 288 | 0.0 | 3.2 | 0.00 | 0.00 | 0.00 | 41 | 1007.4 |
| 20260509084555 | 11 | 288 | 0.0 | 3.2 | 0.00 | 0.00 | 0.00 | 41 | 1007.4 |
| 20260509084055 | 11 | 287 | 0.0 | 3.2 | 0.00 | 0.00 | 0.00 | 41 | 1007.4 |
| 20260509083555 | 11 | 341 | 0.0 | 3.2 | 0.00 | 0.00 | 0.00 | 42 | 1007.3 |
| 20260509083055 | 11 | 341 | 0.0 | 3.2 | 0.00 | 0.00 | 0.00 | 42 | 1007.4 |
| 20260509082555 | 11 | 341 | 0.0 | 3.2 | 0.00 | 0.00 | 0.00 | 42 | 1007.3 |
| 20260509082055 | 11 | 341 | 0.0 | 3.2 | 0.00 | 0.00 | 0.00 | 42 | 1007.3 |
| 20260509081554 | 11 | 341 | 0.0 | 3.2 | 0.00 | 0.00 | 0.00 | 41 | 1007.3 |
| 20260509081054 | 11 | 341 | 0.0 | 3.2 | 0.00 | 0.00 | 0.00 | 42 | 1007.3 |
| 20260509080555 | 12 | 341 | 0.0 | 3.2 | 0.00 | 0.00 | 0.00 | 41 | 1007.3 |
| 20260509080054 | 12 | 341 | 0.0 | 3.2 | 0.00 | 0.00 | 0.00 | 41 | 1007.3 |
| 20260509075554 | 12 | 341 | 0.0 | 3.2 | 0.00 | 0.00 | 0.00 | 40 | 1007.2 |
| 20260509075054 | 12 | 341 | 0.0 | 3.2 | 0.00 | 0.00 | 0.00 | 40 | 1007.2 |
| 20260509074554 | 12 | 341 | 0.0 | 3.2 | 0.00 | 0.00 | 0.00 | 39 | 1007.1 |
| 20260509074054 | 12 | 341 | 0.0 | 3.2 | 0.00 | 0.00 | 0.00 | 39 | 1007.0 |
| 20260509073554 | 12 | 341 | 0.0 | 3.2 | 0.00 | 0.00 | 0.00 | 39 | 1007.1 |
| 20260509073054 | 12 | 341 | 0.0 | 3.2 | 0.00 | 0.00 | 0.00 | 39 | 1007.1 |
| 20260509072554 | 12 | 341 | 0.0 | 3.2 | 0.00 | 0.00 | 0.00 | 38 | 1007.1 |
| 20260509072054 | 12 | 341 | 0.0 | 3.2 | 0.00 | 0.00 | 0.00 | 38 | 1007.0 |
| 20260509071554 | 13 | 341 | 0.0 | 3.2 | 0.00 | 0.00 | 0.00 | 38 | 1007.0 |
| 20260509071054 | 13 | 341 | 0.0 | 3.2 | 0.00 | 0.00 | 0.00 | 38 | 1007.0 |
| 20260509070554 | 13 | 341 | 0.0 | 3.2 | 0.00 | 0.00 | 0.00 | 37 | 1006.9 |
| 20260509070054 | 13 | 341 | 0.0 | 3.2 | 0.00 | 0.00 | 0.00 | 37 | 1006.9 |
| 20260509065556 | 13 | 341 | 0.0 | 3.2 | 0.00 | 0.00 | 0.00 | 37 | 1006.9 |
| 20260509065055 | 13 | 341 | 0.0 | 3.2 | 0.00 | 0.00 | 0.00 | 37 | 1006.9 |
| 20260509064553 | 13 | 341 | 0.0 | 3.2 | 0.00 | 0.00 | 0.00 | 36 | 1006.9 |
| 20260509064055 | 13 | 341 | 0.0 | 3.2 | 0.00 | 0.00 | 0.00 | 36 | 1006.8 |
| 20260509063553 | 13 | 340 | 0.0 | 3.2 | 0.00 | 0.00 | 0.00 | 36 | 1006.9 |
| 20260509063053 | 13 | 340 | 0.0 | 1.6 | 0.00 | 0.00 | 0.00 | 36 | 1006.9 |
| 20260509062554 | 13 | 340 | 0.0 | 1.6 | 0.00 | 0.00 | 0.00 | 37 | 1006.8 |
| 20260509062054 | 13 | 340 | 0.0 | 1.6 | 0.00 | 0.00 | 0.00 | 35 | 1006.8 |
| 20260509061554 | 13 | 340 | 0.0 | 1.6 | 0.00 | 0.00 | 0.00 | 36 | 1006.8 |
| 20260509061054 | 13 | 340 | 0.0 | 1.6 | 0.00 | 0.00 | 0.00 | 34 | 1006.8 |
| 20260509060554 | 14 | 340 | 0.0 | 0.0 | 0.00 | 0.00 | 0.00 | 35 | 1006.7 |
| 20260509060054 | 14 | 340 | 0.0 | 0.0 | 0.00 | 0.00 | 0.00 | 34 | 1006.7 |
| 20260509055555 | 14 | 351 | 0.0 | 16.1 | 0.00 | 0.00 | 0.00 | 33 | 1006.8 |
| 20260509055055 | 14 | 351 | 0.0 | 16.1 | 0.00 | 0.00 | 0.00 | 33 | 1006.8 |
| 20260509054555 | 14 | 351 | 0.0 | 16.1 | 0.00 | 0.00 | 0.00 | 33 | 1006.7 |
| 20260509054054 | 14 | 351 | 0.0 | 16.1 | 0.00 | 0.00 | 0.00 | 35 | 1006.7 |
| 20260509053555 | 14 | 351 | 0.0 | 16.1 | 0.00 | 0.00 | 0.00 | 34 | 1006.6 |
| 20260509053055 | 14 | 351 | 0.0 | 16.1 | 0.00 | 0.00 | 0.00 | 33 | 1006.6 |
| 20260509052555 | 14 | 351 | 0.0 | 16.1 | 0.00 | 0.00 | 0.00 | 32 | 1006.5 |
| 20260509052054 | 15 | 17 | 1.6 | 16.1 | 0.00 | 0.00 | 0.00 | 32 | 1006.5 |
| 20260509051554 | 15 | 5 | 1.6 | 16.1 | 0.00 | 0.00 | 0.00 | 32 | 1006.4 |
| 20260509051054 | 15 | 17 | 0.0 | 16.1 | 0.00 | 0.00 | 0.00 | 32 | 1006.4 |
| 20260509050553 | 15 | 24 | 3.2 | 16.1 | 0.00 | 0.00 | 0.00 | 32 | 1006.3 |
| 20260509050053 | 15 | 30 | 0.0 | 16.1 | 0.00 | 0.00 | 0.00 | 32 | 1006.2 |
| 20260509045555 | 15 | 30 | 0.0 | 16.1 | 0.00 | 0.00 | 0.00 | 32 | 1006.2 |
| 20260509045055 | 15 | 30 | 0.0 | 16.1 | 0.00 | 0.00 | 0.00 | 32 | 1006.2 |
| 20260509044555 | 15 | 30 | 0.0 | 16.1 | 0.00 | 0.00 | 0.00 | 32 | 1006.1 |
| 20260509044053 | 15 | 30 | 0.0 | 16.1 | 0.00 | 0.00 | 0.00 | 32 | 1006.1 |
| 20260509043553 | 15 | 30 | 0.0 | 16.1 | 0.00 | 0.00 | 0.00 | 31 | 1006.1 |
| 20260509043054 | 15 | 30 | 0.0 | 16.1 | 0.00 | 0.00 | 0.00 | 32 | 1006.0 |
| 20260509042554 | 15 | 30 | 0.0 | 16.1 | 0.00 | 0.00 | 0.00 | 31 | 1006.0 |
| 20260509042053 | 15 | 30 | 0.0 | 16.1 | 0.00 | 0.00 | 0.00 | 30 | 1005.9 |
| 20260509041553 | 15 | 36 | 0.0 | 16.1 | 0.00 | 0.00 | 0.00 | 30 | 1005.9 |
| 20260509041053 | 15 | 36 | 0.0 | 16.1 | 0.00 | 0.00 | 0.00 | 30 | 1005.9 |
| 20260509040553 | 15 | 36 | 0.0 | 16.1 | 0.00 | 0.00 | 0.00 | 30 | 1005.8 |
| 20260509040054 | 15 | 36 | 0.0 | 16.1 | 0.00 | 0.00 | 0.00 | 30 | 1005.8 |
| 20260509035554 | 15 | 36 | 0.0 | 16.1 | 0.00 | 0.00 | 0.00 | 30 | 1005.8 |
| 20260509035053 | 15 | 36 | 0.0 | 16.1 | 0.00 | 0.00 | 0.00 | 30 | 1005.7 |
| 20260509034553 | 15 | 22 | 1.6 | 16.1 | 0.00 | 0.00 | 0.00 | 30 | 1005.7 |
| 20260509034054 | 16 | 26 | 0.0 | 16.1 | 0.00 | 0.00 | 0.00 | 30 | 1005.6 |
| 20260509033553 | 16 | 26 | 0.0 | 16.1 | 0.00 | 0.00 | 0.00 | 29 | 1005.5 |
| 20260509033054 | 16 | 26 | 1.6 | 16.1 | 0.00 | 0.00 | 0.00 | 29 | 1005.4 |
| 20260509032554 | 16 | 9 | 1.6 | 16.1 | 0.00 | 0.00 | 0.00 | 29 | 1005.3 |
| 20260509032053 | 16 | 57 | 0.0 | 16.1 | 0.00 | 0.00 | 0.00 | 28 | 1005.2 |
| 20260509031553 | 16 | 24 | 1.6 | 16.1 | 0.00 | 0.00 | 0.00 | 29 | 1005.1 |
| 20260509031054 | 16 | 33 | 0.0 | 16.1 | 0.00 | 0.00 | 0.00 | 29 | 1005.0 |
| 20260509030553 | 16 | 34 | 0.0 | 16.1 | 0.00 | 0.00 | 0.00 | 29 | 1004.9 |
| 20260509030052 | 16 | 34 | 0.0 | 16.1 | 0.00 | 0.00 | 0.00 | 29 | 1004.9 |
| 20260509025553 | 16 | 34 | 1.6 | 16.1 | 0.00 | 0.00 | 0.00 | 29 | 1004.8 |
| 20260509025053 | 16 | 12 | 1.6 | 16.1 | 0.00 | 0.00 | 0.00 | 29 | 1004.7 |
| 20260509024553 | 16 | 355 | 1.6 | 16.1 | 0.00 | 0.00 | 0.00 | 28 | 1004.6 |
| 20260509024053 | 16 | 24 | 1.6 | 16.1 | 0.00 | 0.00 | 0.00 | 28 | 1004.6 |
| 20260509023554 | 16 | 20 | 0.0 | 16.1 | 0.00 | 0.00 | 0.00 | 28 | 1004.5 |
| 20260509023054 | 16 | 5 | 1.6 | 16.1 | 0.00 | 0.00 | 0.00 | 28 | 1004.4 |
| 20260509022554 | 16 | 6 | 1.6 | 16.1 | 0.00 | 0.00 | 0.00 | 28 | 1004.4 |
| 20260509022054 | 16 | 4 | 4.8 | 16.1 | 0.00 | 0.00 | 0.00 | 28 | 1004.3 |
| 20260509021554 | 16 | 358 | 1.6 | 16.1 | 0.00 | 0.00 | 0.00 | 28 | 1004.3 |
| 20260509021053 | 17 | 23 | 1.6 | 16.1 | 0.00 | 0.00 | 0.00 | 28 | 1004.2 |
| 20260509020554 | 17 | 26 | 1.6 | 16.1 | 0.00 | 0.00 | 0.00 | 28 | 1004.2 |
| 20260509020054 | 17 | 23 | 1.6 | 16.1 | 0.00 | 0.00 | 0.00 | 28 | 1004.1 |
| 20260509015554 | 17 | 17 | 1.6 | 16.1 | 0.00 | 0.00 | 0.00 | 28 | 1004.0 |
| 20260509015054 | 17 | 7 | 3.2 | 16.1 | 0.00 | 0.00 | 0.00 | 28 | 1003.9 |
| 20260509014553 | 17 | 21 | 3.2 | 16.1 | 0.00 | 0.00 | 0.00 | 28 | 1003.9 |
| 20260509014053 | 17 | 21 | 3.2 | 16.1 | 0.00 | 0.00 | 0.00 | 28 | 1004.0 |
| 20260509013553 | 17 | 15 | 3.2 | 16.1 | 0.00 | 0.00 | 0.00 | 28 | 1003.9 |
| 20260509013052 | 17 | 7 | 1.6 | 16.1 | 0.00 | 0.00 | 0.00 | 27 | 1003.9 |
| 20260509012553 | 17 | 37 | 3.2 | 16.1 | 0.00 | 0.00 | 0.00 | 27 | 1003.9 |
| 20260509012053 | 17 | 18 | 3.2 | 16.1 | 0.00 | 0.00 | 0.00 | 27 | 1003.8 |
| 20260509011554 | 17 | 357 | 3.2 | 16.1 | 0.00 | 0.00 | 0.00 | 27 | 1003.8 |
| 20260509011053 | 17 | 15 | 3.2 | 16.1 | 0.00 | 0.00 | 0.00 | 27 | 1003.8 |
| 20260509010553 | 17 | 355 | 1.6 | 16.1 | 0.00 | 0.00 | 0.00 | 27 | 1003.7 |
| 20260509010052 | 17 | 24 | 1.6 | 16.1 | 0.00 | 0.00 | 0.00 | 27 | 1003.7 |
| 20260509005554 | 17 | 4 | 3.2 | 16.1 | 0.00 | 0.00 | 0.00 | 27 | 1003.6 |
| 20260509005053 | 17 | 26 | 3.2 | 16.1 | 0.00 | 0.00 | 0.00 | 26 | 1003.5 |
| 20260509004552 | 18 | 5 | 1.6 | 16.1 | 0.00 | 0.00 | 0.00 | 26 | 1003.5 |
| 20260509004053 | 18 | 36 | 1.6 | 16.1 | 0.00 | 0.00 | 0.00 | 26 | 1003.4 |
| 20260509003554 | 18 | 38 | 3.2 | 16.1 | 0.00 | 0.00 | 0.00 | 26 | 1003.4 |
| 20260509003053 | 18 | 358 | 3.2 | 16.1 | 0.00 | 0.00 | 0.00 | 26 | 1003.4 |
| 20260509002554 | 18 | 7 | 4.8 | 16.1 | 0.00 | 0.00 | 0.00 | 25 | 1003.4 |
| 20260509002054 | 18 | 27 | 4.8 | 16.1 | 0.00 | 0.00 | 0.00 | 25 | 1003.4 |
| 20260509001552 | 18 | 12 | 3.2 | 16.1 | 0.00 | 0.00 | 0.00 | 24 | 1003.4 |
| 20260509001054 | 18 | 23 | 4.8 | 16.1 | 0.00 | 0.00 | 0.00 | 25 | 1003.4 |
| 20260509000553 | 18 | 19 | 4.8 | 16.1 | 0.00 | 0.00 | 0.00 | 24 | 1003.4 |
| 20260509000053 | 18 | 14 | 3.2 | 16.1 | 0.00 | 0.00 | 0.00 | 24 | 1003.4 |
| 20260508235553 | 18 | 42 | 1.6 | 16.1 | 0.00 | 0.00 | 0.00 | 24 | 1003.4 |
| 20260508235053 | 18 | 13 | 1.6 | 16.1 | 0.00 | 0.00 | 0.00 | 25 | 1003.4 |
| 20260508234553 | 18 | 10 | 4.8 | 16.1 | 0.00 | 0.00 | 0.00 | 24 | 1003.4 |
| 20260508234053 | 18 | 20 | 3.2 | 16.1 | 0.00 | 0.00 | 0.00 | 24 | 1003.4 |
| 20260508233553 | 18 | 25 | 3.2 | 16.1 | 0.00 | 0.00 | 0.00 | 24 | 1003.5 |
| 20260508233052 | 18 | 6 | 4.8 | 12.9 | 0.00 | 0.00 | 0.00 | 24 | 1003.4 |
| 20260508232552 | 18 | 19 | 1.6 | 12.9 | 0.00 | 0.00 | 0.00 | 25 | 1003.3 |
| 20260508232052 | 18 | 15 | 1.6 | 12.9 | 0.00 | 0.00 | 0.00 | 24 | 1003.3 |
| 20260508231552 | 18 | 7 | 3.2 | 12.9 | 0.00 | 0.00 | 0.00 | 24 | 1003.3 |
| 20260508231052 | 19 | 17 | 3.2 | 12.9 | 0.00 | 0.00 | 0.00 | 24 | 1003.3 |
| 20260508230552 | 19 | 29 | 4.8 | 12.9 | 0.00 | 0.00 | 0.00 | 24 | 1003.3 |
| 20260508230054 | 19 | 34 | 4.8 | 12.9 | 0.00 | 0.00 | 0.00 | 24 | 1003.3 |
| 20260508225553 | 19 | 11 | 1.6 | 12.9 | 0.00 | 0.00 | 0.00 | 23 | 1003.2 |
| 20260508225053 | 19 | 30 | 3.2 | 12.9 | 0.00 | 0.00 | 0.00 | 24 | 1003.2 |
| 20260508224553 | 19 | 3 | 8.0 | 12.9 | 0.00 | 0.00 | 0.00 | 23 | 1003.2 |
| 20260508224053 | 19 | 18 | 0.0 | 12.9 | 0.00 | 0.00 | 0.00 | 23 | 1003.2 |
| 20260508223553 | 19 | 0 | 0.0 | 12.9 | 0.00 | 0.00 | 0.00 | 23 | 1003.1 |
| 20260508223053 | 20 | 358 | 1.6 | 12.9 | 0.00 | 0.00 | 0.00 | 23 | 1003.0 |
| 20260508222552 | 20 | 5 | 0.0 | 12.9 | 0.00 | 0.00 | 0.00 | 23 | 1003.0 |
| 20260508222052 | 20 | 12 | 1.6 | 12.9 | 0.00 | 0.00 | 0.00 | 23 | 1003.0 |
| 20260508221552 | 20 | 343 | 1.6 | 12.9 | 0.00 | 0.00 | 0.00 | 23 | 1003.0 |
| 20260508221052 | 20 | 343 | 1.6 | 12.9 | 0.00 | 0.00 | 0.00 | 23 | 1003.0 |
| 20260508220552 | 20 | 7 | 1.6 | 12.9 | 0.00 | 0.00 | 0.00 | 22 | 1002.9 |
| 20260508220052 | 20 | 0 | 0.0 | 12.9 | 0.00 | 0.00 | 0.00 | 23 | 1003.0 |
| 20260508215552 | 20 | 358 | 0.0 | 12.9 | 0.00 | 0.00 | 0.00 | 23 | 1003.0 |
| 20260508215052 | 21 | 350 | 0.0 | 12.9 | 0.00 | 0.00 | 0.00 | 22 | 1003.0 |
| 20260508214553 | 21 | 355 | 0.0 | 12.9 | 0.00 | 0.00 | 0.00 | 22 | 1003.0 |
| 20260508214053 | 21 | 5 | 1.6 | 12.9 | 0.00 | 0.00 | 0.00 | 22 | 1003.0 |
| 20260508213553 | 21 | 355 | 1.6 | 12.9 | 0.00 | 0.00 | 0.00 | 22 | 1003.0 |
| 20260508213052 | 21 | 5 | 1.6 | 12.9 | 0.00 | 0.00 | 0.00 | 22 | 1003.1 |
| 20260508212552 | 21 | 11 | 0.0 | 12.9 | 0.00 | 0.00 | 0.00 | 23 | 1003.0 |
| 20260508212052 | 21 | 10 | 0.0 | 12.9 | 0.00 | 0.00 | 0.00 | 22 | 1003.1 |
| 20260508211553 | 21 | 355 | 0.0 | 12.9 | 0.00 | 0.00 | 0.00 | 22 | 1003.1 |
| 20260508211053 | 21 | 355 | 1.6 | 12.9 | 0.00 | 0.00 | 0.00 | 23 | 1003.1 |
| 20260508210553 | 21 | 355 | 0.0 | 12.9 | 0.00 | 0.00 | 0.00 | 23 | 1003.1 |
| 20260508210053 | 21 | 355 | 1.6 | 12.9 | 0.00 | 0.00 | 0.00 | 22 | 1003.1 |
| 20260508205552 | 21 | 355 | 0.0 | 12.9 | 0.00 | 0.00 | 0.00 | 23 | 1003.2 |
| 20260508205052 | 21 | 5 | 0.0 | 12.9 | 0.00 | 0.00 | 0.00 | 22 | 1003.1 |
| 20260508204552 | 21 | 5 | 1.6 | 12.9 | 0.00 | 0.00 | 0.00 | 22 | 1003.2 |
| 20260508204053 | 21 | 2 | 0.0 | 12.9 | 0.00 | 0.00 | 0.00 | 23 | 1003.2 |
| 20260508203552 | 21 | 1 | 1.6 | 12.9 | 0.00 | 0.00 | 0.00 | 22 | 1003.3 |
| 20260508203052 | 21 | 0 | 0.0 | 12.9 | 0.00 | 0.00 | 0.00 | 23 | 1003.4 |
| 20260508202552 | 21 | 0 | 0.0 | 12.9 | 0.00 | 0.00 | 0.00 | 23 | 1003.3 |
| 20260508202052 | 21 | 0 | 0.0 | 12.9 | 0.00 | 0.00 | 0.00 | 23 | 1003.3 |
| 20260508201552 | 21 | 0 | 1.6 | 12.9 | 0.00 | 0.00 | 0.00 | 22 | 1003.3 |
| 20260508201052 | 21 | 24 | 0.0 | 12.9 | 0.00 | 0.00 | 0.00 | 22 | 1003.3 |
| 20260508200553 | 21 | 6 | 1.6 | 12.9 | 0.00 | 0.00 | 0.00 | 22 | 1003.3 |
| 20260508200053 | 21 | 20 | 0.0 | 12.9 | 0.00 | 0.00 | 0.00 | 23 | 1003.3 |
| 20260508195553 | 21 | 8 | 4.8 | 12.9 | 0.00 | 0.00 | 0.00 | 22 | 1003.4 |
| 20260508195052 | 21 | 32 | 3.2 | 12.9 | 0.00 | 0.00 | 0.00 | 21 | 1003.4 |
| 20260508194552 | 21 | 340 | 0.0 | 12.9 | 0.00 | 0.00 | 0.00 | 23 | 1003.5 |
| 20260508194051 | 21 | 3 | 4.8 | 12.9 | 0.00 | 0.00 | 0.00 | 22 | 1003.5 |
| 20260508193551 | 21 | 355 | 0.0 | 12.9 | 0.00 | 0.00 | 0.00 | 22 | 1003.6 |
| 20260508193051 | 21 | 22 | 3.2 | 12.9 | 0.00 | 0.00 | 0.00 | 22 | 1003.6 |
| 20260508192552 | 21 | 30 | 1.6 | 12.9 | 0.00 | 0.00 | 0.00 | 22 | 1003.6 |
| 20260508192051 | 21 | 335 | 1.6 | 12.9 | 0.00 | 0.00 | 0.00 | 21 | 1003.7 |
| 20260508191553 | 21 | 27 | 1.6 | 12.9 | 0.00 | 0.00 | 0.00 | 22 | 1003.8 |
| 20260508191052 | 21 | 28 | 0.0 | 12.9 | 0.00 | 0.00 | 0.00 | 23 | 1003.9 |
| 20260508190551 | 21 | 12 | 0.0 | 12.9 | 0.00 | 0.00 | 0.00 | 24 | 1004.0 |
| 20260508190053 | 21 | 12 | 1.6 | 12.9 | 0.00 | 0.00 | 0.00 | 23 | 1004.0 |
| 20260508185553 | 21 | 0 | 1.6 | 12.9 | 0.00 | 0.00 | 0.00 | 23 | 1004.1 |
| 20260508185053 | 20 | 355 | 1.6 | 12.9 | 0.00 | 0.00 | 0.00 | 22 | 1004.2 |
| 20260508184552 | 21 | 22 | 1.6 | 12.9 | 0.00 | 0.00 | 0.00 | 23 | 1004.3 |
| 20260508184053 | 21 | 7 | 3.2 | 12.9 | 0.00 | 0.00 | 0.00 | 23 | 1004.3 |
| 20260508183551 | 21 | 339 | 0.0 | 12.9 | 0.00 | 0.00 | 0.00 | 23 | 1004.3 |
| 20260508183053 | 21 | 334 | 4.8 | 12.9 | 0.00 | 0.00 | 0.00 | 22 | 1004.5 |
| 20260508182552 | 20 | 34 | 0.0 | 12.9 | 0.00 | 0.00 | 0.00 | 24 | 1004.4 |
| 20260508182052 | 20 | 26 | 0.0 | 12.9 | 0.00 | 0.00 | 0.00 | 24 | 1004.4 |
| 20260508181552 | 20 | 21 | 0.0 | 12.9 | 0.00 | 0.00 | 0.00 | 23 | 1004.4 |